FW7752 Weather Reports


time (UTC)temp
C
wind
direction
speed
KPH
gust
KPH
rain 1hr
cm
rain 24hr
cm
rain mn
cm
humidity
%
barometer
mb
20260510175650 21 60 12.9 19.3 0.00 0.00 0.00 38 1019.1
20260510175147 21 36 12.9 22.5 0.00 0.00 0.00 40 1018.8
20260510174644 20 0 4.8 9.7 0.00 0.00 0.00 37 1019.0
20260510174142 20 11 8.0 27.4 0.00 0.00 0.00 39 1018.9
20260510173637 20 0 14.5 24.1 0.00 0.00 0.00 37 1018.9
20260510173134 20 25 6.4 14.5 0.00 0.00 0.00 39 1018.8
20260510172629 20 27 9.7 19.3 0.00 0.00 0.00 37 1018.8
20260510172126 20 68 19.3 25.7 0.00 0.00 0.00 37 1018.9
20260510171622 20 81 12.9 27.4 0.00 0.00 0.00 39 1019.1
20260510171120 20 58 11.3 17.7 0.00 0.00 0.00 41 1018.9
20260510170616 20 55 12.9 22.5 0.00 0.00 0.00 37 1019.2
20260510170113 20 21 11.3 17.7 0.00 0.00 0.00 39 1019.0
20260510165608 20 4 14.5 19.3 0.00 0.00 0.00 38 1019.0
20260510165104 20 49 24.1 24.1 0.00 0.00 0.00 37 1018.9
20260510164602 20 24 17.7 19.3 0.00 0.00 0.00 40 1018.7
20260510164058 20 53 14.5 22.5 0.00 0.00 0.00 38 1018.8
20260510163554 19 28 6.4 17.7 0.00 0.00 0.00 42 1018.7
20260510163050 19 12 16.1 20.9 0.00 0.00 0.00 39 1018.6
20260510162545 19 50 8.0 22.5 0.00 0.00 0.00 41 1018.9
20260510162042 19 98 11.3 22.5 0.00 0.00 0.00 42 1018.9
20260510161538 19 54 22.5 29.0 0.00 0.00 0.00 39 1018.8
20260510161035 18 74 9.7 27.4 0.00 0.00 0.00 40 1018.7
20260510160532 18 85 9.7 29.0 0.00 0.00 0.00 40 1018.8
20260510160031 18 62 16.1 27.4 0.00 0.00 0.00 39 1018.4
20260510155528 18 68 19.3 35.4 0.00 0.00 0.00 38 1018.4
20260510155025 18 85 12.9 19.3 0.00 0.00 0.00 42 1018.4
20260510154520 18 105 8.0 14.5 0.00 0.00 0.00 44 1018.4
20260510154015 18 73 6.4 12.9 0.00 0.00 0.00 49 1018.2
20260510153510 18 13 9.7 20.9 0.00 0.00 0.00 43 1018.2
20260510153007 17 52 22.5 27.4 0.00 0.00 0.00 44 1018.4
20260510152504 17 75 12.9 24.1 0.00 0.00 0.00 45 1018.6
20260510152000 17 44 14.5 25.7 0.00 0.00 0.00 46 1018.3
20260510151458 17 53 12.9 24.1 0.00 0.00 0.00 46 1018.6
20260510150955 17 85 4.8 19.3 0.00 0.00 0.00 49 1018.7
20260510150450 17 59 6.4 25.7 0.00 0.00 0.00 49 1018.8
20260510145946 17 38 9.7 20.9 0.00 0.00 0.00 49 1018.6
20260510145442 17 39 8.0 14.5 0.00 0.00 0.00 49 1018.3
20260510144939 17 92 8.0 20.9 0.00 0.00 0.00 50 1018.7
20260510144436 17 13 9.7 25.7 0.00 0.00 0.00 47 1018.7
20260510143931 17 96 8.0 14.5 0.00 0.00 0.00 49 1019.0
20260510143427 17 7 12.9 25.7 0.00 0.00 0.00 49 1018.7
20260510142925 17 57 14.5 20.9 0.00 0.00 0.00 52 1018.7
20260510142421 17 78 14.5 27.4 0.00 0.00 0.00 52 1018.4
20260510141917 17 32 14.5 19.3 0.00 0.00 0.00 52 1018.3
20260510141415 17 70 8.0 20.9 0.00 0.00 0.00 55 1018.3
20260510140912 18 50 12.9 17.7 0.00 0.00 0.00 53 1018.1
20260510140408 17 38 9.7 19.3 0.00 0.00 0.00 55 1017.7
20260510135907 17 86 8.0 16.1 0.00 0.00 0.00 54 1017.9
20260510135403 17 58 12.9 22.5 0.00 0.00 0.00 55 1017.8
20260510134901 17 16 11.3 25.7 0.00 0.00 0.00 55 1017.7
20260510134357 17 43 11.3 17.7 0.00 0.00 0.00 54 1017.2
20260510133853 17 85 4.8 14.5 0.00 0.00 0.00 57 1017.4
20260510133350 17 91 4.8 17.7 0.00 0.00 0.00 57 1017.3
20260510132845 17 34 16.1 20.9 0.00 0.00 0.00 56 1017.1
20260510132343 17 93 8.0 24.1 0.00 0.00 0.00 60 1017.4
20260510131840 17 58 8.0 16.1 0.00 0.00 0.00 59 1017.6
20260510131338 17 76 8.0 16.1 0.00 0.00 0.00 59 1017.5
20260510130834 17 65 12.9 19.3 0.00 0.00 0.00 59 1017.4
20260510130331 17 75 8.0 17.7 0.00 0.00 0.00 64 1017.3
20260510125827 16 44 14.5 25.7 0.00 0.00 0.00 63 1017.1
20260510125324 16 48 19.3 25.7 0.00 0.00 0.00 66 1016.8
20260510124821 16 21 9.7 20.9 0.00 0.00 0.00 69 1016.6
20260510124318 16 64 6.4 17.7 0.00 0.00 0.00 73 1016.5
20260510123813 16 71 4.8 16.1 0.00 0.00 0.00 75 1016.5
20260510123309 16 41 6.4 19.3 0.00 0.00 0.00 76 1016.3
20260510122806 16 40 6.4 11.3 0.00 0.00 0.00 77 1016.3
20260510122305 16 38 6.4 11.3 0.00 0.00 0.00 78 1016.0
20260510121758 16 37 9.7 9.7 0.00 0.00 0.00 79 1015.9
20260510121256 15 12 6.4 14.5 0.00 0.00 0.00 79 1015.9
20260510120753 15 343 3.2 9.7 0.00 0.00 0.00 81 1016.0
20260510120249 15 17 6.4 8.0 0.00 0.00 0.00 80 1016.1
20260510115745 15 7 6.4 8.0 0.00 0.00 0.00 81 1016.2
20260510115244 15 30 6.4 8.0 0.00 0.00 0.00 82 1016.0
20260510114738 14 19 4.8 6.4 0.00 0.00 0.00 84 1015.9
20260510114236 14 10 4.8 6.4 0.00 0.00 0.00 86 1015.7
20260510113731 14 37 3.2 4.8 0.00 0.00 0.00 86 1015.6
20260510113228 14 10 3.2 4.8 0.00 0.00 0.00 86 1015.5
20260510112725 14 39 0.0 4.8 0.00 0.00 0.00 87 1015.3
20260510112222 14 296 0.0 3.2 0.00 0.00 0.00 87 1015.2
20260510111717 14 30 1.6 6.4 0.00 0.00 0.00 88 1015.0
20260510111214 14 96 1.6 4.8 0.00 0.00 0.00 88 1015.2
20260510110709 14 2 4.8 6.4 0.00 0.00 0.00 89 1015.0
20260510110207 13 8 1.6 4.8 0.00 0.00 0.00 90 1015.0
20260510105706 13 344 3.2 3.2 0.00 0.00 0.00 91 1014.9
20260510105201 13 2 4.8 4.8 0.00 0.00 0.00 92 1014.9
20260510104658 13 335 3.2 4.8 0.00 0.00 0.00 92 1014.9
20260510104155 13 348 4.8 9.7 0.00 0.00 0.00 90 1015.0
20260510103652 13 354 3.2 3.2 0.00 0.00 0.00 88 1014.8
20260510103149 14 204 0.0 3.2 0.00 0.00 0.00 89 1014.7
20260510102648 13 183 3.2 3.2 0.00 0.00 0.00 90 1014.8
20260510102145 13 180 1.6 3.2 0.00 0.00 0.00 92 1014.4
20260510101642 13 233 0.0 3.2 0.00 0.00 0.00 93 1014.3
20260510101141 13 129 0.0 1.6 0.00 0.00 0.00 94 1014.4
20260510100636 13 38 0.0 4.8 0.00 0.00 0.00 94 1014.8
20260510100134 13 46 1.6 3.2 0.00 0.00 0.00 94 1014.4
20260510095629 13 14 3.2 4.8 0.00 0.00 0.00 94 1014.3
20260510095125 13 13 0.0 3.2 0.00 0.00 0.00 94 1014.3
20260510094623 13 30 4.8 4.8 0.00 0.00 0.00 94 1014.3
20260510094119 13 74 0.0 3.2 0.00 0.00 0.00 95 1014.1
20260510093616 13 11 3.2 3.2 0.00 0.00 0.00 95 1014.3
20260510093113 13 19 3.2 3.2 0.00 0.00 0.00 95 1013.9
20260510092609 13 299 0.0 1.6 0.00 0.00 0.00 95 1013.7
20260510092109 12 322 0.0 1.6 0.00 0.00 0.00 95 1013.6
20260510091606 12 67 0.0 3.2 0.00 0.00 0.00 94 1013.5
20260510091102 13 134 3.2 4.8 0.00 0.00 0.00 94 1013.4
20260510090600 13 86 1.6 3.2 0.00 0.00 0.00 94 1013.7
20260510090055 13 112 0.0 3.2 0.00 0.00 0.00 94 1013.6
20260510085550 13 89 0.0 3.2 0.00 0.00 0.00 94 1013.5
20260510085046 13 52 0.0 1.6 0.00 0.00 0.00 94 1013.4
20260510084543 13 55 0.0 3.2 0.00 0.00 0.00 94 1013.4
20260510084040 13 357 3.2 6.4 0.00 0.00 0.00 94 1013.5
20260510083536 12 9 4.8 4.8 0.00 0.00 0.00 94 1013.4
20260510083032 12 9 1.6 3.2 0.00 0.00 0.00 94 1013.1
20260510082530 12 113 0.0 3.2 0.00 0.00 0.00 94 1013.0
20260510082025 12 133 1.6 3.2 0.00 0.00 0.00 93 1013.2
20260510081520 12 49 1.6 3.2 0.00 0.00 0.00 93 1013.2
20260510081016 12 135 3.2 3.2 0.00 0.00 0.00 93 1013.4
20260510080515 12 76 3.2 4.8 0.00 0.00 0.00 93 1013.1
20260510080012 13 70 3.2 4.8 0.00 0.00 0.00 93 1013.3
20260510075510 13 112 3.2 4.8 0.00 0.00 0.00 93 1013.2
20260510075006 13 144 3.2 3.2 0.00 0.00 0.00 93 1013.1
20260510074504 12 139 1.6 3.2 0.00 0.00 0.00 93 1013.3
20260510073959 12 89 0.0 1.6 0.00 0.00 0.00 93 1013.4
20260510073455 12 317 0.0 1.6 0.00 0.00 0.00 93 1013.3
20260510072952 12 89 0.0 3.2 0.00 0.00 0.00 92 1013.4
20260510072449 12 89 0.0 3.2 0.00 0.00 0.00 92 1013.3
20260510071944 12 106 1.6 3.2 0.00 0.00 0.00 92 1013.2
20260510071441 12 115 3.2 4.8 0.00 0.00 0.00 91 1012.9
20260510070939 13 111 3.2 4.8 0.00 0.00 0.00 91 1013.2
20260510070436 13 106 1.6 3.2 0.00 0.00 0.00 91 1013.2
20260510065932 13 143 3.2 4.8 0.00 0.00 0.00 90 1013.0
20260510065429 13 99 0.0 0.0 0.00 0.00 0.00 90 1012.9
20260510064924 13 14 1.6 4.8 0.00 0.00 0.00 89 1012.7
20260510064422 13 351 3.2 3.2 0.00 0.00 0.00 90 1012.9
20260510063919 13 230 0.0 1.6 0.00 0.00 0.00 90 1012.8
20260510063415 13 156 3.2 3.2 0.00 0.00 0.00 89 1012.9
20260510062913 13 33 1.6 3.2 0.00 0.00 0.00 88 1012.8
20260510062408 13 135 0.0 0.0 0.00 0.00 0.00 87 1012.9
20260510061904 13 124 0.0 3.2 0.00 0.00 0.00 87 1013.0
20260510061400 13 186 0.0 1.6 0.00 0.00 0.00 87 1012.9
20260510060856 14 153 1.6 3.2 0.00 0.00 0.00 87 1012.9
20260510060353 14 149 0.0 4.8 0.00 0.00 0.00 85 1013.0
20260510055849 15 134 3.2 4.8 0.00 0.00 0.00 84 1012.8
20260510055350 15 137 3.2 3.2 0.00 0.00 0.00 84 1012.9
20260510054848 15 179 1.6 4.8 0.00 0.00 0.00 84 1013.0
20260510054344 15 115 3.2 6.4 0.00 0.00 0.00 82 1012.9
20260510053839 15 129 1.6 1.6 0.00 0.00 0.00 79 1012.8
20260510053335 16 184 3.2 4.8 0.00 0.00 0.00 79 1012.7
20260510052832 16 166 3.2 4.8 0.00 0.00 0.00 79 1012.8
20260510052327 16 173 3.2 3.2 0.00 0.00 0.00 79 1012.9
20260510051824 16 97 0.0 4.8 0.00 0.00 0.00 78 1012.9
20260510051321 16 177 1.6 3.2 0.00 0.00 0.00 77 1012.9
20260510050818 16 137 0.0 3.2 0.00 0.00 0.00 75 1012.9
20260510050314 16 119 0.0 1.6 0.00 0.00 0.00 74 1012.8
20260510045811 16 320 0.0 3.2 0.00 0.00 0.00 74 1012.6
20260510045308 16 304 0.0 4.8 0.00 0.00 0.00 75 1012.8
20260510044805 16 294 1.6 3.2 0.00 0.00 0.00 76 1012.6
20260510044302 16 3 3.2 4.8 0.00 0.00 0.00 76 1012.6
20260510043758 16 10 3.2 4.8 0.00 0.00 0.00 79 1012.4
20260510043254 15 341 8.0 11.3 0.00 0.00 0.00 87 1012.6
20260510042752 13 329 8.0 14.5 0.00 0.00 0.00 90 1012.5
20260510042247 13 8 1.6 3.2 0.00 0.00 0.00 87 1011.9
20260510041744 14 89 0.0 1.6 0.00 0.00 0.00 86 1011.9
20260510041242 14 23 1.6 3.2 0.00 0.00 0.00 87 1011.9
20260510040739 13 336 0.0 3.2 0.00 0.00 0.00 89 1012.0
20260510040236 13 148 1.6 3.2 0.00 0.00 0.00 89 1011.5
20260510035731 13 89 0.0 1.6 0.00 0.00 0.00 89 1011.4
20260510035227 13 131 0.0 3.2 0.00 0.00 0.00 88 1011.3
20260510034723 13 126 0.0 1.6 0.00 0.00 0.00 86 1011.6
20260510034221 14 120 0.0 3.2 0.00 0.00 0.00 86 1011.4
20260510033717 14 137 1.6 3.2 0.00 0.00 0.00 86 1011.6
20260510033215 14 124 3.2 3.2 0.00 0.00 0.00 86 1011.4
20260510032711 14 154 3.2 4.8 0.00 0.00 0.00 86 1011.4
20260510032207 14 177 3.2 3.2 0.00 0.00 0.00 87 1011.3
20260510031701 14 124 1.6 4.8 0.00 0.00 0.00 87 1011.3
20260510031158 15 112 3.2 3.2 0.00 0.00 0.00 85 1011.4
20260510030652 15 104 3.2 4.8 0.00 0.00 0.00 84 1011.5
20260510030150 15 119 4.8 4.8 0.00 0.00 0.00 81 1011.3
20260510025647 15 173 3.2 3.2 0.00 0.00 0.00 81 1011.5
20260510025144 15 135 3.2 3.2 0.00 0.00 0.00 81 1011.1
20260510024641 15 156 3.2 3.2 0.00 0.00 0.00 81 1011.2
20260510024138 15 124 0.0 1.6 0.00 0.00 0.00 82 1011.1
20260510023634 15 142 1.6 3.2 0.00 0.00 0.00 81 1010.7
20260510023131 16 104 0.0 1.6 0.00 0.00 0.00 78 1011.0
20260510022631 16 43 0.0 0.0 0.00 0.00 0.00 76 1010.8
20260510022126 16 66 0.0 0.0 0.00 0.00 0.00 76 1010.7
20260510021622 16 66 0.0 0.0 0.00 0.00 0.00 74 1010.4
20260510021120 16 147 0.0 3.2 0.00 0.00 0.00 74 1010.3
20260510020614 16 188 3.2 3.2 0.00 0.00 0.00 76 1010.0
20260510020109 17 174 1.6 3.2 0.00 0.00 0.00 77 1010.1
20260510015606 17 134 0.0 1.6 0.00 0.00 0.00 74 1009.9
20260510015102 17 152 1.6 3.2 0.00 0.00 0.00 71 1010.0
20260510014558 17 137 1.6 3.2 0.00 0.00 0.00 72 1009.7
20260510014055 18 134 1.6 3.2 0.00 0.00 0.00 76 1009.6
20260510013550 18 120 0.0 0.0 0.00 0.00 0.00 68 1009.6
20260510013046 19 142 0.0 0.0 0.00 0.00 0.00 63 1009.5
20260510012539 20 135 0.0 1.6 0.00 0.00 0.00 63 1009.6
20260510012037 20 159 0.0 3.2 0.00 0.00 0.00 58 1009.5
20260510011536 20 211 1.6 3.2 0.00 0.00 0.00 55 1009.4
20260510011032 21 208 3.2 3.2 0.00 0.00 0.00 53 1009.5
20260510010529 21 189 0.0 1.6 0.00 0.00 0.00 50 1009.4
20260510010026 22 199 1.6 3.2 0.00 0.00 0.00 49 1009.4
20260510005521 23 205 1.6 3.2 0.00 0.00 0.00 49 1009.3
20260510005020 23 215 3.2 3.2 0.00 0.00 0.00 43 1009.2
20260510004517 24 219 1.6 3.2 0.00 0.00 0.00 44 1009.2
20260510004015 25 210 1.6 3.2 0.00 0.00 0.00 43 1009.1
20260510003511 26 186 1.6 1.6 0.00 0.00 0.00 40 1009.0
20260510003007 26 204 1.6 3.2 0.00 0.00 0.00 39 1008.9
20260510002503 26 214 3.2 3.2 0.00 0.00 0.00 38 1009.2
20260510001959 26 201 3.2 3.2 0.00 0.00 0.00 40 1009.0
20260510001457 26 207 3.2 3.2 0.00 0.00 0.00 38 1009.1
20260510000955 26 189 3.2 4.8 0.00 0.00 0.00 38 1009.2
20260510000450 26 226 3.2 3.2 0.00 0.00 0.00 40 1009.1
20260509235947 26 214 1.6 3.2 0.00 0.00 0.00 37 1009.0
20260509235444 26 229 0.0 3.2 0.00 0.00 0.00 36 1009.2
20260509234940 27 245 1.6 3.2 0.00 0.00 0.00 34 1009.3
20260509234437 27 241 1.6 4.8 0.00 0.00 0.00 34 1009.1
20260509233935 27 248 6.4 8.0 0.00 0.00 0.00 33 1009.0
20260509233432 27 242 1.6 4.8 0.00 0.00 0.00 34 1009.0
20260509232928 27 230 1.6 3.2 0.00 0.00 0.00 31 1009.1
20260509232426 27 205 4.8 4.8 0.00 0.00 0.00 32 1009.0
20260509231921 27 222 4.8 6.4 0.00 0.00 0.00 35 1009.2
20260509231418 27 212 3.2 4.8 0.00 0.00 0.00 33 1009.0
20260509230916 26 224 1.6 3.2 0.00 0.00 0.00 36 1009.2
20260509230413 26 234 6.4 6.4 0.00 0.00 0.00 33 1009.1
20260509225909 27 262 6.4 8.0 0.00 0.00 0.00 30 1008.9
20260509225406 27 265 3.2 4.8 0.00 0.00 0.00 30 1009.1
20260509224901 27 256 4.8 4.8 0.00 0.00 0.00 29 1009.1
20260509224357 27 253 6.4 11.3 0.00 0.00 0.00 29 1009.0
20260509223855 28 231 8.0 8.0 0.00 0.00 0.00 30 1009.1
20260509223351 28 260 8.0 16.1 0.00 0.00 0.00 28 1009.0
20260509222848 28 260 8.0 8.0 0.00 0.00 0.00 30 1009.0
20260509222343 28 278 3.2 3.2 0.00 0.00 0.00 32 1009.1
20260509221838 28 216 3.2 8.0 0.00 0.00 0.00 28 1009.0
20260509221336 28 241 4.8 8.0 0.00 0.00 0.00 32 1008.9
20260509220831 28 285 6.4 9.7 0.00 0.00 0.00 29 1009.1
20260509220327 27 282 6.4 11.3 0.00 0.00 0.00 27 1009.0
20260509215823 27 289 9.7 14.5 0.00 0.00 0.00 27 1009.1
20260509215320 28 292 11.3 14.5 0.00 0.00 0.00 29 1008.9
20260509214817 28 326 1.6 4.8 0.00 0.00 0.00 26 1009.0
20260509214314 28 313 9.7 9.7 0.00 0.00 0.00 26 1009.2
20260509213811 28 291 9.7 12.9 0.00 0.00 0.00 28 1008.9
20260509213306 28 320 6.4 11.3 0.00 0.00 0.00 31 1009.0
20260509212804 28 279 11.3 14.5 0.00 0.00 0.00 26 1009.2
20260509212305 28 237 8.0 8.0 0.00 0.00 0.00 28 1009.0
20260509211756 28 215 8.0 12.9 0.00 0.00 0.00 27 1009.1
20260509211253 27 232 4.8 6.4 0.00 0.00 0.00 28 1009.1
20260509210750 27 257 11.3 16.1 0.00 0.00 0.00 28 1009.3
20260509210248 27 261 8.0 20.9 0.00 0.00 0.00 30 1009.1
20260509205747 27 260 8.0 9.7 0.00 0.00 0.00 29 1009.4
20260509205242 27 280 6.4 14.5 0.00 0.00 0.00 28 1009.1
20260509204738 27 305 8.0 11.3 0.00 0.00 0.00 31 1009.5
20260509204235 27 313 6.4 19.3 0.00 0.00 0.00 27 1009.3
20260509203731 27 316 12.9 19.3 0.00 0.00 0.00 26 1009.4
20260509203229 27 352 6.4 12.9 0.00 0.00 0.00 24 1009.5
20260509202724 27 314 11.3 12.9 0.00 0.00 0.00 26 1009.5
20260509202221 27 280 14.5 19.3 0.00 0.00 0.00 28 1009.5
20260509201715 27 294 6.4 11.3 0.00 0.00 0.00 34 1009.5
20260509201212 27 277 8.0 16.1 0.00 0.00 0.00 30 1009.5
20260509200708 27 316 11.3 19.3 0.00 0.00 0.00 33 1009.7
20260509200203 27 236 8.0 12.9 0.00 0.00 0.00 26 1009.7
20260509195659 27 264 3.2 12.9 0.00 0.00 0.00 29 1010.0
20260509195155 27 335 9.7 17.7 0.00 0.00 0.00 32 1009.9
20260509194648 27 295 11.3 22.5 0.00 0.00 0.00 30 1009.9
20260509194141 27 253 11.3 14.5 0.00 0.00 0.00 30 1010.0
20260509193636 27 323 11.3 16.1 0.00 0.00 0.00 31 1009.8
20260509193132 27 275 12.9 14.5 0.00 0.00 0.00 30 1010.0
20260509192629 26 273 6.4 16.1 0.00 0.00 0.00 32 1009.9
20260509192124 26 309 11.3 27.4 0.00 0.00 0.00 28 1009.9
20260509191624 26 237 14.5 22.5 0.00 0.00 0.00 30 1010.0
20260509191121 26 288 17.7 17.7 0.00 0.00 0.00 30 1009.8
20260509190617 26 259 9.7 20.9 0.00 0.00 0.00 33 1010.0
20260509190115 26 252 12.9 17.7 0.00 0.00 0.00 33 1009.8
20260509185612 26 285 14.5 22.5 0.00 0.00 0.00 33 1009.8
20260509185108 26 298 9.7 12.9 0.00 0.00 0.00 36 1010.1
20260509184606 26 252 12.9 17.7 0.00 0.00 0.00 33 1010.0
20260509184103 26 314 16.1 24.1 0.00 0.00 0.00 36 1010.0
20260509183558 26 278 4.8 16.1 0.00 0.00 0.00 34 1009.9
20260509183054 26 332 9.7 16.1 0.00 0.00 0.00 40 1010.0
20260509182551 26 339 8.0 12.9 0.00 0.00 0.00 40 1009.9
20260509182047 26 293 8.0 14.5 0.00 0.00 0.00 39 1010.0
20260509181546 26 246 8.0 11.3 0.00 0.00 0.00 45 1009.9
20260509181042 26 313 11.3 14.5 0.00 0.00 0.00 38 1010.0
20260509180538 25 327 11.3 22.5 0.00 0.00 0.00 34 1010.1
20260509180036 26 323 9.7 14.5 0.00 0.00 0.00 38 1010.0